Temp
43 42 43 44 44 43 42 40 40 39 39 39 39 39 38 37 35 35 35 35 35 34 34 34 35 34 34 35 35 35 34 33 33 33 33 33 33 33 32 32 33 34
43 43 43 44 43 42 42 41 40 40 39 39 39 38 36 35 34 35 34 34 34 34 34 34 34 34 34 35 34 34 33 33 32 32 33 32 33 33 32 32 32 33
43 42 42 42 41 41 40 40 40 40 39 38 37 37 35 34 34 34 34 34 34 33 33 34 34 34 34 34 34 34 33 32 32 32 33 32 33 32 31 32 32 32
42 42 42 42 41 40 39 38 38 38 37 36 36 35 34 33 34 33 33 33 34 33 33 34 33 33 33 33 33 33 33 33 33 32 32 32 32 32 31 32 31 31
42 41 41 41 41 40 38 38 37 37 37 36 35 34 34 33 33 33 33 33 33 33 33 33 33 32 32 33 33 32 32 31 31 33 33 31 31 31 30 31 30 30
42 42 41 40 40 38 38 38 37 37 36 34 34 34 34 34 34 33 33 33 33 33 33 33 33 32 33 32 32 32 32 32 32 32 32 31 30 31 30 31 31 30
40 40 39 39 38 38 38 38 37 36 36 35 34 34 33 33 33 33 34 34 33 33 33 33 32 32 32 32 32 31 32 32 32 32 31 31 30 29 30 30 30 30
40 39 39 38 38 37 38 37 36 35 35 34 34 33 34 33 34 33 33 33 33 33 33 32 32 32 32 32 32 31 31 31 31 31 31 30 30 29 29 28 29 29
39 38 38 37 37 37 37 36 35 34 34 34 33 33 34 34 33 33 33 33 33 32 32 32 32 32 31 31 32 32 31 31 31 31 30 29 29 29 28 28 27 28
38 38 37 36 37 37 36 35 34 34 34 34 33 33 33 33 33 33 32 33 32 32 32 32 32 32 31 32 32 32 31 31 31 30 30 30 30 29 27 27 28 28
38 37 36 36 36 36 35 34 33 33 33 33 32 32 33 32 32 33 32 33 33 32 32 32 32 32 32 32 32 33 32 30 30 30 30 30 30 29 28 28 28 29
37 37 36 36 36 35 35 34 33 33 33 33 33 33 32 33 32 32 33 33 33 33 33 32 32 32 32 32 32 32 32 31 30 30 30 30 30 29 29 29 29 29
37 37 37 36 36 35 34 33 33 33 33 33 33 33 32 32 32 32 33 33 33 33 32 32 32 32 32 32 31 31 31 30 30 29 29 29 29 29 29 29 29 29
37 37 37 36 36 35 34 34 34 33 34 34 33 33 32 32 32 32 32 33 33 32 32 32 32 32 32 31 31 31 30 30 30 29 28 28 28 28 28 28 28 28
37 37 37 36 36 35 34 34 34 34 33 33 33 33 33 33 33 33 32 32 32 32 32 32 32 31 31 31 30 30 30 29 29 28 28 28 27 27 27 27 27 27
37 36 36 36 36 35 34 34 34 33 33 32 32 32 32 32 32 32 32 31 31 31 31 31 31 31 31 32 32 30 30 29 28 28 28 28 27 26 26 26 25 26
37 36 36 35 35 35 34 33 33 32 32 31 31 31 31 31 31 31 31 32 31 30 30 30 30 30 32 34 34 33 31 29 27 26 26 27 27 26 25 25 25 25
36 36 35 34 34 33 33 32 32 31 30 30 30 30 30 30 31 31 31 31 31 30 30 30 30 31 34 34 34 34 32 29 28 26 25 27 27 27 26 25 25 25
36 35 35 34 33 33 32 31 30 30 30 29 29 30 29 29 31 31 30 30 30 29 29 29 29 33 34 35 35 35 34 30 27 27 26 26 27 26 26 26 25 24
36 34 34 34 34 33 32 30 30 30 30 30 30 29 29 29 30 29 29 29 29 29 29 29 29 32 34 35 35 35 35 32 27 26 26 26 26 26 25 25 25 23
35 34 34 33 33 32 31 30 30 30 30 30 30 29 29 28 29 28 28 28 28 28 29 28 28 32 35 35 35 36 36 34 27 26 26 26 27 26 26 25 25 24
35 34 33 33 32 32 31 30 30 30 29 30 29 30 29 29 29 29 28 27 27 27 27 27 28 33 34 35 36 36 36 33 28 26 25 25 24 26 25 25 24 24
35 34 33 33 32 31 30 30 30 30 30 30 29 29 29 28 28 28 28 27 27 26 26 27 26 31 34 35 35 36 35 33 30 27 26 25 25 25 24 24 23 23
35 34 33 32 32 31 30 31 31 31 30 29 29 28 28 28 28 27 27 27 26 26 26 26 26 29 33 34 35 36 35 33 31 28 27 26 26 26 24 24 24 23
34 33 33 32 32 32 31 30 30 30 30 29 29 29 28 28 28 27 27 26 26 26 27 27 27 28 32 34 35 35 35 33 32 29 27 26 26 26 26 24 24 24
34 33 33 32 32 31 31 31 31 30 29 29 29 29 29 28 27 27 26 26 26 26 26 27 27 27 28 33 34 35 36 33 32 29 27 27 26 26 26 25 24 22
MSLP
1023.88 1024.18 1024.32 1024.34 1024.36 1024.44 1024.90 1025.50 1025.92 1026.16 1026.60 1027.06 1027.32 1027.64 1027.96 1028.42 1028.94 1029.20 1029.54 1029.68 1029.64 1029.78 1030.14 1030.36 1030.60 1030.84 1031.04 1031.18 1031.36 1031.56 1031.94 1032.38 1032.64 1032.78 1032.86 1032.94 1033.24 1033.36 1033.60 1033.90 1034.00 1034.04
1023.64 1023.90 1024.10 1024.24 1024.46 1024.70 1025.00 1025.16 1025.52 1025.92 1026.36 1026.80 1027.18 1027.60 1028.16 1028.58 1029.08 1029.40 1029.54 1029.58 1029.78 1030.04 1030.32 1030.56 1030.84 1030.96 1031.08 1031.30 1031.56 1031.72 1032.26 1032.54 1032.84 1032.94 1032.88 1032.92 1033.16 1033.36 1033.60 1033.84 1034.00 1034.22
1023.52 1023.78 1023.98 1024.10 1024.34 1024.62 1025.00 1025.48 1025.66 1025.82 1026.16 1026.72 1027.24 1027.64 1028.10 1028.68 1029.14 1029.50 1029.58 1029.56 1029.80 1030.16 1030.42 1030.70 1030.96 1031.20 1031.36 1031.60 1031.80 1031.94 1032.24 1032.54 1032.70 1032.86 1032.68 1032.78 1032.96 1033.08 1033.54 1033.70 1033.94 1034.08
1023.34 1023.50 1023.66 1023.88 1024.16 1024.44 1024.96 1025.40 1025.88 1026.12 1026.44 1026.78 1027.16 1027.66 1028.12 1028.68 1029.16 1029.40 1029.54 1029.68 1029.76 1030.12 1030.46 1030.70 1030.98 1031.34 1031.64 1031.94 1032.16 1032.44 1032.78 1032.90 1032.90 1032.86 1032.88 1033.06 1033.14 1033.16 1033.46 1033.66 1034.02 1034.34
1022.98 1023.34 1023.66 1023.90 1024.10 1024.38 1024.86 1025.28 1025.62 1026.02 1026.34 1026.66 1027.24 1027.72 1028.16 1028.66 1029.06 1029.26 1029.44 1029.68 1029.82 1030.10 1030.42 1030.72 1031.06 1031.40 1031.78 1032.14 1032.46 1032.84 1033.26 1033.42 1033.46 1033.20 1033.02 1033.22 1033.48 1033.44 1033.66 1033.72 1034.02 1034.44
1022.90 1023.10 1023.30 1023.66 1024.08 1024.46 1024.90 1025.14 1025.46 1025.82 1026.26 1026.76 1027.04 1027.54 1028.02 1028.50 1028.82 1029.04 1029.28 1029.56 1029.88 1030.10 1030.42 1030.76 1031.02 1031.44 1031.78 1032.22 1032.68 1033.08 1033.34 1033.48 1033.58 1033.48 1033.34 1033.42 1033.74 1033.78 1033.80 1033.86 1034.06 1034.44
1022.82 1023.24 1023.52 1023.86 1024.14 1024.40 1024.66 1025.08 1025.56 1025.90 1026.18 1026.48 1027.06 1027.44 1027.86 1028.32 1028.68 1028.90 1029.16 1029.46 1029.84 1030.14 1030.42 1030.72 1030.98 1031.38 1031.80 1032.22 1032.70 1033.12 1033.36 1033.48 1033.58 1033.52 1033.42 1033.62 1033.74 1033.98 1034.04 1034.00 1034.10 1034.36
1022.70 1023.16 1023.44 1023.78 1024.14 1024.48 1024.72 1025.14 1025.56 1025.92 1026.24 1026.66 1026.86 1027.36 1027.68 1028.08 1028.44 1028.80 1029.14 1029.52 1029.84 1030.22 1030.56 1030.82 1031.06 1031.36 1031.82 1032.24 1032.66 1033.08 1033.36 1033.54 1033.48 1033.42 1033.46 1033.62 1033.72 1033.86 1034.08 1034.12 1034.16 1034.24
1022.46 1022.90 1023.38 1023.76 1023.96 1024.32 1024.68 1025.18 1025.60 1026.00 1026.32 1026.46 1026.86 1027.32 1027.76 1027.98 1028.30 1028.68 1029.08 1029.46 1029.82 1030.22 1030.56 1030.84 1031.10 1031.44 1031.86 1032.22 1032.56 1032.86 1033.12 1033.30 1033.34 1033.28 1033.26 1033.38 1033.50 1033.66 1033.86 1034.14 1034.26 1034.32
1022.28 1022.68 1023.12 1023.46 1023.72 1024.10 1024.52 1025.04 1025.50 1025.94 1026.28 1026.52 1026.86 1027.20 1027.54 1028.06 1028.36 1028.64 1029.00 1029.32 1029.70 1030.16 1030.48 1030.76 1031.10 1031.42 1031.82 1032.16 1032.42 1032.68 1032.90 1032.94 1033.04 1033.16 1033.20 1033.16 1033.16 1033.50 1033.84 1034.04 1034.08 1034.30
1022.08 1022.42 1022.82 1023.22 1023.46 1023.90 1024.36 1024.90 1025.36 1025.86 1026.22 1026.44 1026.82 1027.16 1027.48 1027.90 1028.36 1028.64 1028.90 1029.20 1029.50 1029.88 1030.26 1030.58 1030.86 1031.22 1031.60 1031.98 1032.28 1032.54 1032.74 1032.80 1032.84 1032.96 1033.14 1033.22 1033.28 1033.46 1033.74 1033.92 1034.04 1033.94
1021.82 1022.24 1022.54 1022.92 1023.30 1023.76 1024.22 1024.66 1025.14 1025.56 1025.92 1026.32 1026.52 1026.80 1027.34 1027.72 1027.98 1028.40 1028.60 1028.94 1029.30 1029.68 1030.02 1030.36 1030.72 1031.02 1031.38 1031.72 1032.06 1032.38 1032.60 1032.74 1032.82 1032.94 1033.10 1033.22 1033.36 1033.54 1033.76 1033.88 1033.88 1033.98
1021.50 1021.88 1022.28 1022.78 1023.16 1023.56 1024.06 1024.50 1024.88 1025.26 1025.64 1025.96 1026.30 1026.58 1026.98 1027.44 1027.92 1028.20 1028.58 1028.80 1029.20 1029.60 1029.94 1030.24 1030.60 1030.96 1031.30 1031.66 1031.98 1032.24 1032.36 1032.52 1032.74 1033.02 1033.22 1033.36 1033.46 1033.58 1033.76 1033.90 1033.94 1034.08
1021.22 1021.70 1022.12 1022.56 1023.02 1023.44 1023.86 1024.22 1024.62 1025.06 1025.38 1025.76 1026.08 1026.38 1026.74 1027.12 1027.46 1027.88 1028.36 1028.76 1029.08 1029.46 1029.86 1030.22 1030.56 1030.94 1031.26 1031.60 1031.94 1032.20 1032.38 1032.48 1032.56 1032.82 1033.08 1033.26 1033.46 1033.66 1033.80 1033.90 1034.00 1034.12
1021.08 1021.58 1022.02 1022.52 1022.92 1023.28 1023.66 1024.00 1024.34 1024.66 1025.04 1025.44 1025.78 1026.04 1026.42 1026.80 1027.24 1027.62 1028.08 1028.56 1029.00 1029.38 1029.80 1030.16 1030.44 1030.66 1030.90 1031.20 1031.60 1031.96 1032.16 1032.24 1032.44 1032.62 1032.82 1033.00 1033.36 1033.60 1033.74 1033.84 1033.94 1034.06
1020.80 1021.34 1021.84 1022.36 1022.76 1023.02 1023.34 1023.74 1024.14 1024.50 1024.82 1025.16 1025.46 1025.72 1026.10 1026.56 1027.00 1027.44 1027.82 1028.16 1028.62 1029.06 1029.32 1029.60 1029.82 1030.06 1030.38 1030.74 1031.14 1031.48 1031.80 1032.06 1032.36 1032.56 1032.66 1032.80 1033.00 1033.30 1033.48 1033.62 1033.72 1033.88
1020.48 1020.96 1021.44 1021.92 1022.24 1022.64 1023.12 1023.52 1023.88 1024.24 1024.60 1024.96 1025.32 1025.62 1025.96 1026.36 1026.72 1027.14 1027.48 1027.76 1028.04 1028.38 1028.82 1029.20 1029.56 1029.86 1030.16 1030.44 1030.80 1031.22 1031.50 1031.74 1032.00 1032.28 1032.54 1032.60 1032.72 1032.76 1032.74 1033.10 1033.46 1033.74
1019.74 1020.24 1020.72 1021.10 1021.52 1022.00 1022.52 1023.06 1023.58 1024.12 1024.56 1024.86 1025.18 1025.56 1025.94 1026.28 1026.56 1026.74 1027.08 1027.52 1028.00 1028.46 1028.80 1029.12 1029.36 1029.58 1029.80 1030.08 1030.42 1030.74 1031.10 1031.40 1031.70 1031.98 1032.28 1032.34 1032.42 1032.44 1032.50 1032.78 1033.10 1033.44
1019.44 1019.96 1020.40 1020.92 1021.38 1021.90 1022.50 1023.06 1023.48 1023.96 1024.40 1024.76 1025.02 1025.32 1025.78 1026.12 1026.24 1026.60 1026.96 1027.32 1027.68 1028.06 1028.46 1028.76 1029.02 1029.22 1029.44 1029.68 1030.00 1030.28 1030.60 1031.06 1031.38 1031.62 1031.84 1032.00 1032.06 1032.08 1032.20 1032.38 1032.66 1033.00
1019.32 1019.84 1020.28 1020.70 1021.14 1021.68 1022.30 1022.86 1023.34 1023.60 1023.98 1024.44 1024.88 1025.32 1025.56 1025.82 1026.08 1026.34 1026.70 1027.06 1027.30 1027.58 1027.96 1028.38 1028.72 1028.92 1029.06 1029.36 1029.64 1029.86 1030.12 1030.56 1031.04 1031.24 1031.42 1031.58 1031.66 1031.74 1031.84 1031.96 1032.20 1032.52
1019.08 1019.58 1020.14 1020.70 1021.12 1021.56 1022.10 1022.60 1023.02 1023.48 1023.90 1024.20 1024.50 1024.74 1025.06 1025.36 1025.66 1026.08 1026.36 1026.66 1026.98 1027.26 1027.56 1027.98 1028.36 1028.58 1028.76 1029.04 1029.26 1029.48 1029.70 1030.08 1030.72 1030.98 1031.20 1031.32 1031.34 1031.36 1031.34 1031.46 1031.82 1032.10
1019.00 1019.44 1019.88 1020.38 1020.90 1021.38 1021.84 1022.30 1022.74 1023.04 1023.42 1023.84 1024.28 1024.64 1024.96 1025.30 1025.64 1025.88 1026.08 1026.34 1026.62 1026.92 1027.26 1027.72 1028.18 1028.34 1028.48 1028.68 1028.90 1029.10 1029.34 1029.70 1030.22 1030.56 1030.72 1030.86 1030.92 1030.90 1030.92 1031.14 1031.44 1031.64
1018.50 1018.96 1019.44 1019.98 1020.52 1021.08 1021.60 1022.00 1022.40 1022.86 1023.28 1023.66 1024.08 1024.42 1024.78 1025.04 1025.20 1025.42 1025.72 1026.08 1026.40 1026.74 1027.06 1027.50 1027.96 1028.04 1028.12 1028.34 1028.58 1028.74 1029.06 1029.28 1029.60 1030.00 1030.20 1030.36 1030.24 1030.26 1030.48 1030.78 1030.96 1031.10
1017.96 1018.44 1018.94 1019.48 1020.04 1020.50 1021.02 1021.54 1022.12 1022.64 1023.06 1023.44 1023.72 1024.12 1024.50 1024.80 1025.10 1025.54 1025.86 1026.12 1026.36 1026.60 1026.84 1027.18 1027.52 1027.78 1027.82 1027.96 1028.14 1028.28 1028.38 1028.58 1028.86 1029.34 1029.60 1029.78 1029.78 1029.84 1030.06 1030.18 1030.26 1030.58
1018.10 1018.60 1019.00 1019.38 1019.78 1020.12 1020.56 1021.10 1021.62 1022.06 1022.62 1023.28 1023.62 1023.92 1024.30 1024.74 1025.18 1025.48 1025.84 1026.14 1026.32 1026.54 1026.88 1027.08 1027.18 1027.40 1027.46 1027.54 1027.66 1027.78 1027.98 1028.26 1028.52 1028.88 1029.24 1029.40 1029.42 1029.42 1029.54 1029.72 1029.90 1030.10
1017.72 1018.08 1018.46 1018.88 1019.36 1019.90 1020.42 1020.84 1021.42 1022.06 1022.54 1022.96 1023.36 1023.68 1024.10 1024.54 1024.96 1025.24 1025.50 1025.82 1026.22 1026.52 1026.70 1026.82 1026.98 1027.10 1027.28 1027.30 1027.46 1027.62 1027.70 1027.96 1028.22 1028.58 1028.68 1028.72 1028.96 1029.02 1029.00 1029.10 1029.32 1029.64
Wind_Speed
10 9 10 9 6 7 8 9 8 10 8 7 7 7 7 5 5 5 5 5 5 7 6 6 6 6 6 6 6 6 6 6 5 4 5 6 6 7 6 6 5 4
10 10 8 6 4 5 5 7 10 9 10 9 7 7 6 6 5 5 5 6 6 7 7 6 6 6 6 6 6 7 6 5 6 3 7 8 7 7 7 7 7 5
10 9 9 10 8 9 10 8 7 8 10 9 8 7 6 6 6 5 5 6 7 7 6 6 6 6 6 6 5 5 6 6 6 6 6 7 6 7 6 6 6 6
10 11 10 10 9 11 10 10 8 7 8 9 8 7 7 6 6 7 6 7 7 7 6 6 6 6 6 5 5 4 3 3 3 5 6 5 4 6 6 5 6 5
12 11 9 8 8 10 9 10 11 10 10 9 8 8 8 8 7 7 7 6 6 7 6 7 6 6 6 5 4 4 3 3 3 3 5 5 4 5 5 6 6 7
10 10 11 11 10 10 9 9 8 11 11 10 9 8 8 8 7 7 7 8 6 7 7 7 7 6 6 6 5 3 4 4 4 4 5 6 5 3 4 5 7 6
10 9 9 8 9 11 9 8 8 9 8 8 8 8 8 8 8 8 8 7 8 7 7 7 8 7 6 6 5 5 4 4 5 5 6 5 5 6 4 5 5 6
11 9 9 9 11 9 8 8 9 8 9 9 10 8 8 9 9 8 7 8 8 7 7 7 7 7 7 6 6 6 5 4 5 6 6 5 5 6 5 3 5 6
11 11 10 10 11 9 10 10 8 8 8 9 9 9 7 7 8 8 8 8 7 7 7 7 7 7 6 6 6 7 7 7 6 6 7 7 6 6 6 6 5 5
11 9 10 12 11 9 11 10 9 8 7 8 8 7 9 7 7 8 8 8 8 7 7 7 7 7 6 6 7 8 7 7 7 6 5 5 6 6 6 6 6 6
9 9 9 12 11 10 12 11 10 9 8 9 9 8 8 8 7 7 8 8 8 9 8 8 8 8 8 7 6 6 6 5 6 6 6 6 6 6 6 6 7 6
11 9 10 10 12 12 11 10 11 9 9 7 8 9 9 7 9 8 7 9 7 8 7 8 8 7 7 7 6 6 6 5 5 6 6 5 5 6 6 6 6 6
12 9 9 10 10 10 9 9 9 9 9 9 9 10 9 9 8 8 7 7 7 7 8 7 7 7 6 6 6 5 6 7 6 6 5 4 4 5 5 5 5 5
11 10 9 8 9 8 10 10 10 9 9 9 10 11 12 11 10 9 8 7 7 7 7 6 6 6 6 6 5 5 6 7 7 6 6 5 4 4 4 5 5 6
10 9 8 9 9 10 12 12 12 12 11 11 11 10 9 11 10 10 9 8 6 7 7 6 6 6 6 6 7 7 7 7 7 7 6 6 5 5 4 5 5 5
11 10 10 10 10 12 12 12 11 11 11 12 12 11 10 10 10 10 10 11 10 9 8 8 8 7 8 13 11 8 7 6 6 6 6 5 5 5 5 5 6 5
11 12 11 13 12 12 10 12 12 11 11 10 10 10 11 11 10 11 11 11 12 12 11 8 7 6 13 15 14 14 8 7 6 5 5 5 6 6 7 6 5 6
13 14 14 14 14 12 12 11 10 10 10 10 10 10 9 8 11 12 11 10 8 8 8 8 8 10 16 16 16 17 13 8 5 5 6 6 6 6 6 5 6 6
13 13 13 11 11 10 10 10 10 10 10 10 11 10 8 10 12 11 11 10 10 10 10 9 8 13 16 17 17 17 17 11 5 5 6 6 7 7 7 7 6 5
12 11 12 11 11 11 10 11 11 12 11 9 9 9 10 10 10 11 10 10 11 11 10 9 9 13 17 17 17 18 18 14 7 6 6 6 7 7 8 8 7 7
11 11 10 9 10 10 10 11 11 10 10 10 10 12 12 12 12 12 11 11 10 10 10 9 8 14 17 18 18 19 18 14 6 6 5 5 6 8 9 9 8 7
11 10 11 11 11 11 11 12 11 12 12 10 9 8 7 6 6 7 10 11 10 10 9 9 7 16 17 19 19 18 19 10 7 7 7 7 8 7 8 7 7 8
13 13 12 12 12 12 11 11 11 11 9 7 9 8 8 9 9 9 8 9 10 9 9 8 8 14 19 19 19 20 15 9 9 7 8 9 9 8 7 7 8 8
12 12 12 12 12 13 13 11 9 6 8 8 10 10 10 9 7 6 5 6 8 9 10 10 9 12 19 19 20 22 17 12 8 7 7 9 9 8 7 7 8 13
10 10 10 11 12 12 12 12 12 11 8 7 7 7 7 6 6 6 5 5 7 8 7 10 9 11 19 20 22 22 17 10 8 6 6 8 6 6 6 6 6 10
11 13 12 13 13 11 10 10 8 8 9 9 8 7 7 6 7 7 9 7 7 7 9 10 10 8 10 19 19 19 20 11 8 6 9 10 7 7 6 5 7 8
Wind_Direction
174 179 182 184 179 164 154 153 163 154 158 153 167 165 160 136 134 132 129 126 105 103 107 106 109 110 105 101 99 96 93 96 97 104 107 107 108 117 114 118 106 110
180 181 183 177 160 154 156 162 157 163 158 160 154 142 127 128 130 135 138 120 107 104 109 110 112 114 114 114 118 113 114 123 121 152 131 123 128 124 121 125 120 122
180 179 177 175 168 165 159 153 163 158 152 146 130 135 128 127 129 134 129 122 118 116 113 116 113 109 108 108 112 113 127 139 137 152 134 132 140 127 127 126 115 114
182 183 179 177 171 166 157 144 151 144 134 142 149 138 131 130 135 135 129 130 124 122 122 117 113 108 102 98 93 94 104 111 126 137 120 117 121 119 123 116 110 106
180 178 178 177 171 161 155 162 162 158 158 143 126 136 136 140 144 139 135 134 130 128 128 122 113 110 104 101 95 109 117 128 147 147 123 114 117 113 120 116 117 115
184 181 174 172 168 161 160 169 165 159 148 146 148 137 137 141 146 143 143 141 141 136 131 127 124 119 119 115 118 128 145 151 159 152 122 121 124 114 123 123 125 127
178 174 171 170 166 171 166 161 158 157 153 141 136 145 143 149 151 149 146 144 141 143 141 140 135 133 129 131 136 150 165 161 156 159 136 132 129 128 129 130 133 134
175 173 173 168 169 169 167 155 153 159 148 142 149 142 149 150 150 146 145 143 142 142 142 140 136 131 134 139 152 159 164 173 168 156 143 139 139 138 142 139 139 140
170 172 170 173 168 163 159 152 152 149 152 152 148 145 148 153 150 147 146 145 143 145 145 142 142 138 145 152 163 168 170 176 175 164 158 153 157 157 151 146 148 154
175 169 167 165 168 164 158 154 150 150 149 147 145 144 149 148 148 146 146 150 144 147 149 146 145 148 152 167 173 179 183 175 170 171 168 166 158 155 155 161 162 156
170 166 167 170 165 160 158 153 150 147 155 152 149 151 149 144 146 149 148 151 156 158 157 156 156 155 162 171 179 188 191 176 170 166 171 170 166 161 163 167 173 178
178 171 175 166 162 157 159 158 154 156 156 155 159 151 151 155 151 158 158 158 156 157 155 155 156 159 166 169 174 178 180 178 174 169 169 165 164 168 174 182 177 181
182 176 169 169 168 161 156 161 161 160 162 162 166 160 156 153 156 153 161 154 152 152 159 157 156 157 164 166 173 181 177 171 164 166 167 163 169 174 182 186 189 189
181 175 171 158 159 158 167 166 163 164 167 164 164 166 168 166 159 157 150 155 152 153 149 145 147 156 162 166 173 175 172 175 170 164 166 172 173 182 187 194 198 201
172 174 170 167 167 168 173 173 172 172 170 168 172 170 169 167 163 158 150 149 143 145 146 148 161 171 173 170 165 181 183 170 168 170 168 167 174 185 196 201 208 209
170 170 171 170 171 179 179 174 173 173 172 172 175 172 165 162 160 161 163 162 157 159 161 170 179 180 177 180 185 178 167 166 164 170 172 173 176 185 198 206 210 210
169 174 171 176 180 179 177 177 177 176 174 173 171 169 166 163 160 163 169 171 174 172 174 177 174 173 179 187 186 183 175 168 170 173 180 180 185 189 200 202 206 211
176 174 176 181 180 180 177 177 171 170 172 172 169 166 167 162 168 176 175 172 169 167 170 172 180 182 184 187 188 186 182 175 168 174 181 192 194 198 201 193 203 206
178 178 180 177 177 173 171 168 168 170 171 172 176 172 161 172 181 173 175 171 168 168 176 181 185 183 186 187 189 189 187 179 172 178 186 197 200 200 199 200 191 200
176 176 179 178 172 168 166 169 170 178 178 175 168 167 177 181 180 179 172 172 176 178 180 180 183 186 187 186 189 193 192 185 178 184 197 198 201 201 205 205 194 189
174 173 172 169 170 167 168 173 176 176 176 178 177 180 181 183 180 178 182 180 180 180 178 182 184 183 186 189 195 197 197 189 184 189 196 209 210 208 210 201 194 197
170 170 171 170 171 171 172 176 178 181 181 178 177 179 180 173 182 185 184 184 182 179 176 182 181 186 191 194 198 200 199 194 180 188 200 208 213 213 212 202 196 203
174 174 173 170 171 172 176 179 179 181 180 170 173 175 177 185 189 191 186 181 179 178 179 184 185 193 195 199 200 202 199 203 195 191 203 214 219 210 200 196 201 203
176 173 172 170 169 175 177 179 174 169 172 169 176 178 186 189 185 176 180 181 181 185 188 188 194 196 199 203 205 204 202 203 199 190 202 217 230 221 191 209 202 206
167 169 170 170 174 178 174 172 175 176 168 162 173 173 180 166 168 175 179 189 194 195 185 198 204 202 205 208 207 208 205 208 203 196 198 224 223 228 213 205 207 209
171 173 175 174 176 173 171 171 159 154 165 171 174 172 167 170 178 186 192 196 188 193 202 207 211 210 208 213 213 213 212 207 213 192 218 225 226 231 228 219 196 204